Date,TemperatureHighF,TemperatureAvgF,TemperatureLowF,DewpointHighF,DewpointAvgF,DewpointLowF,HumidityHigh,HumidityAvg,HumidityLow,PressureMaxIn,PressureMinIn,WindSpeedMaxMPH,WindSpeedAvgMPH,GustSpeedMaxMPH,PrecipitationSumIn
2013-1-1,78.2,72.3,66.3,64.4,61.5,58.8,83,69,59,30.16,30.00,22,3,22,0.00
2013-1-2,81.6,71.4,61.8,67.7,63.8,59.2,92,78,53,30.05,29.94,12,1,12,0.00
2013-1-3,82.5,73.2,67.3,68.9,66.7,64.6,92,81,60,30.09,29.98,11,1,13,0.00
2013-1-4,80.5,71.8,65.7,71.2,67.5,63.3,92,87,67,30.18,30.06,10,2,11,0.01
2013-1-5,74.5,69.5,66.4,69.6,66.5,64.0,92,90,82,30.21,30.11,15,2,15,0.05
2013-1-6,80.2,72.7,65.5,72.6,68.1,63.1,92,86,73,30.14,30.01,17,2,17,0.01
2013-1-7,74.5,70.8,68.2,69.5,67.6,65.8,92,90,80,30.12,30.02,15,2,15,0.00
2013-1-8,81.2,74.9,69.3,72.9,70.3,66.9,92,86,72,30.15,30.03,19,3,19,0.00
2013-1-9,80.5,76.6,73.8,71.8,70.7,69.3,90,82,74,30.24,30.11,25,6,25,0.00
2013-1-10,79.0,75.8,73.1,69.8,67.1,64.2,82,75,63,30.25,30.13,24,5,28,0.08
2013-1-11,79.7,75.2,71.6,69.8,67.9,66.2,86,78,68,30.21,30.11,20,4,20,0.00
2013-1-12,78.1,73.5,66.7,69.8,67.5,64.0,91,82,69,30.14,30.05,17,2,17,0.03
2013-1-13,79.5,73.9,66.6,68.5,65.9,63.8,92,77,63,30.09,30.02,19,3,20,0.03
2013-1-14,79.2,72.0,64.2,66.5,64.4,61.5,92,78,62,30.13,30.07,18,2,19,0.00
2013-1-15,76.9,71.6,65.7,69.7,66.7,62.7,92,85,73,30.09,30.00,14,2,15,0.03
2013-1-16,79.7,72.2,63.7,70.2,66.9,61.3,92,84,69,30.06,29.97,15,2,16,0.04
2013-1-17,79.7,70.7,60.4,71.5,65.8,54.2,92,85,70,30.05,29.93,24,3,24,0.02
2013-1-18,70.1,62.6,52.4,60.5,54.0,46.8,83,74,64,30.19,30.05,19,5,19,0.00
2013-1-19,69.8,67.7,63.6,66.7,63.4,58.1,92,86,67,30.18,30.04,12,1,15,0.16
2013-1-20,78.8,70.1,64.3,69.6,65.6,61.8,92,86,68,30.10,29.96,14,1,15,0.18
2013-1-21,78.7,71.5,65.8,71.1,67.0,63.4,92,86,74,30.03,29.91,13,1,13,0.01
2013-1-22,74.0,67.1,62.3,63.7,59.7,54.7,92,78,61,30.17,29.96,22,4,22,0.00
2013-1-23,72.1,66.1,60.2,58.5,56.2,53.8,85,71,54,30.25,30.15,19,3,19,0.00
2013-1-24,74.0,64.6,58.1,56.0,53.7,43.6,88,69,45,30.25,30.15,17,2,17,0.00
2013-1-25,74.8,65.4,58.2,59.9,56.1,52.4,89,73,52,30.24,30.13,14,2,14,0.00
2013-1-26,75.6,66.5,58.6,61.6,58.6,52.8,92,77,54,30.21,30.11,13,1,15,0.00
2013-1-27,75.8,69.4,62.2,64.4,61.0,58.4,92,76,59,30.24,30.15,17,3,17,0.00
2013-1-28,78.5,74.0,70.3,66.4,64.3,62.3,79,72,60,30.27,30.17,21,4,22,0.00
2013-1-29,78.5,73.5,67.2,69.6,66.8,64.0,91,80,68,30.19,30.07,22,3,22,0.00
2013-1-30,79.8,74.1,70.4,68.1,66.0,63.9,88,76,64,30.08,29.92,23,4,26,0.00
2013-1-31,71.8,65.8,57.9,69.3,59.1,43.5,92,80,55,30.14,29.90,20,4,20,0.00
2013-2-1,70.6,61.1,52.1,56.3,49.5,40.0,77,66,58,30.23,30.12,22,6,22,0.00
2013-2-2,72.5,62.6,54.0,56.2,50.4,41.7,89,65,48,30.22,30.07,15,2,15,0.00
2013-2-3,71.9,62.3,54.0,55.6,50.6,40.0,92,69,32,30.13,30.02,16,2,16,0.00
2013-2-4,74.9,61.8,50.5,57.2,49.9,42.9,89,67,35,30.10,29.98,15,1,15,0.00
2013-2-5,76.8,66.1,54.1,64.1,58.7,51.8,92,78,54,30.04,29.95,15,1,15,0.00
2013-2-6,76.2,69.4,60.8,66.7,62.7,58.5,92,80,68,30.06,29.98,13,1,13,0.00
2013-2-7,80.1,71.8,62.3,67.1,63.9,59.7,92,77,55,30.03,29.90,16,2,16,0.00
2013-2-8,80.8,73.5,66.2,70.4,67.7,61.8,92,83,67,29.99,29.86,16,2,17,0.00
2013-2-9,77.2,69.8,62.8,67.3,63.2,59.1,92,80,67,30.13,29.97,19,4,20,0.00
2013-2-10,73.8,70.9,67.5,65.0,62.2,58.2,87,74,70,30.22,30.10,21,4,25,0.02
2013-2-11,77.7,72.0,66.1,66.3,64.1,60.9,87,77,67,30.17,30.07,18,3,18,0.00
2013-2-12,85.6,73.2,62.9,70.1,65.7,60.4,92,79,46,30.08,29.92,19,2,19,0.00
2013-2-13,86.3,76.7,68.2,71.8,69.2,65.1,92,79,55,29.96,29.84,21,3,21,0.00
2013-2-14,79.0,70.4,62.7,71.5,66.9,60.3,92,89,76,29.97,29.81,26,3,28,0.76
2013-2-15,71.0,66.4,63.1,67.0,63.7,60.7,92,91,83,29.98,29.89,14,1,14,0.12
2013-2-16,71.7,64.8,55.5,62.9,57.1,46.6,93,78,46,30.04,29.83,23,5,24,0.05
2013-2-17,56.4,51.2,44.9,46.9,32.0,20.9,75,50,29,30.27,30.03,30,7,30,0.00
2013-2-18,67.6,59.0,46.6,58.0,46.5,34.5,73,63,49,30.28,30.16,22,4,22,0.00
2013-2-19,76.8,70.2,58.9,66.6,61.6,54.6,91,75,64,30.16,30.03,21,3,21,0.10
2013-2-20,77.0,69.8,64.7,67.1,64.0,58.8,92,83,57,30.07,29.97,15,2,15,0.00
2013-2-21,80.0,72.2,64.5,69.1,65.4,62.0,92,80,63,30.05,29.95,17,2,17,0.00
2013-2-22,80.5,75.2,70.8,71.5,69.5,66.2,89,83,71,30.06,29.97,21,5,21,0.00
2013-2-23,83.8,76.9,72.7,72.7,70.5,68.6,90,81,63,30.00,29.87,19,4,19,0.00
2013-2-24,87.8,77.3,71.4,73.1,69.8,64.0,92,79,47,29.95,29.85,15,2,15,0.00
2013-2-25,83.1,75.4,68.6,73.4,69.9,65.9,92,83,67,29.88,29.76,25,2,25,0.04
2013-2-26,85.6,79.1,74.5,72.7,70.8,68.6,90,77,60,29.85,29.75,25,5,26,0.00
2013-2-27,76.8,69.9,65.0,73.0,65.6,62.0,92,86,69,29.93,29.82,14,2,14,0.30
2013-2-28,68.0,63.9,60.2,62.9,55.7,49.3,92,76,56,29.97,29.86,16,3,17,0.07
2013-3-1,63.6,61.4,58.3,57.9,52.9,48.4,86,74,62,29.95,29.86,16,3,16,0.00
2013-3-2,63.8,57.5,52.5,50.1,44.2,36.3,76,62,46,30.00,29.91,29,6,29,0.00
2013-3-3,60.6,53.9,49.9,47.4,43.9,40.8,89,70,51,30.11,29.92,20,4,20,0.01
2013-3-4,66.3,53.9,43.9,45.6,39.0,32.4,82,59,33,30.18,30.08,20,4,21,0.00
2013-3-5,74.3,62.7,49.9,58.2,53.5,45.9,95,74,49,30.14,30.04,19,2,19,0.00
2013-3-6,76.5,64.8,51.8,64.4,52.7,31.0,91,68,29,30.06,29.91,24,3,24,0.00
2013-3-7,69.0,58.1,47.9,55.8,45.7,37.2,89,65,43,30.15,30.02,17,3,17,0.00
2013-3-8,73.9,62.6,53.2,54.7,50.9,41.8,92,69,32,30.16,30.05,14,2,14,0.00
2013-3-9,72.5,63.9,54.7,58.2,54.4,51.0,92,72,56,30.15,30.06,19,3,19,0.00
2013-3-10,73.7,69.0,63.6,61.7,57.2,54.1,77,66,54,30.12,30.02,21,5,21,0.00
2013-3-11,75.9,71.3,67.9,62.9,60.9,57.6,78,70,55,30.07,29.91,20,4,20,0.00
2013-3-12,81.5,73.9,69.2,69.0,65.7,62.1,87,76,62,29.96,29.86,21,4,23,0.00
2013-3-13,73.1,65.3,57.1,65.5,54.7,44.7,91,71,39,30.08,29.93,20,5,20,0.00
2013-3-14,69.4,60.8,53.9,54.5,47.3,37.3,89,64,36,30.17,30.05,19,6,19,0.00
2013-3-15,70.3,61.5,52.2,55.1,50.3,45.7,81,68,47,30.21,30.10,16,4,16,0.00
2013-3-16,74.3,64.7,53.4,58.3,54.2,50.8,92,71,49,30.15,30.05,17,2,17,0.00
2013-3-17,75.5,67.7,58.4,61.9,58.7,55.0,91,74,56,30.11,29.98,15,2,19,0.00
2013-3-18,79.6,71.1,63.5,69.9,65.1,59.6,91,82,67,30.03,29.92,19,4,21,0.09
2013-3-19,78.5,72.4,68.2,69.3,67.4,65.2,92,85,69,29.97,29.76,18,2,20,0.00
2013-3-20,83.6,72.8,64.4,69.2,64.4,58.9,92,76,52,29.93,29.76,19,2,22,0.01
2013-3-21,73.0,66.2,59.5,61.8,53.2,39.6,90,66,32,29.91,29.79,21,3,21,0.00
2013-3-22,75.5,68.0,57.1,69.1,60.5,53.3,91,78,61,29.96,29.85,19,3,19,0.00
2013-3-23,87.2,78.3,72.0,73.7,70.7,68.2,91,79,54,29.94,29.76,20,2,20,0.06
2013-3-24,88.2,79.2,73.1,73.3,71.4,68.0,91,78,58,29.85,29.65,30,7,33,0.03
2013-3-25,75.3,72.7,64.1,72.2,61.0,45.6,91,69,43,29.95,29.70,19,4,20,0.02
2013-3-26,64.7,59.6,51.7,47.0,41.3,33.1,68,52,34,30.17,29.94,22,8,23,0.00
2013-3-27,66.8,56.4,46.5,48.9,42.3,36.5,82,61,39,30.22,30.13,19,4,19,0.00
2013-3-28,71.0,60.5,50.2,51.8,45.8,38.3,82,61,34,30.23,30.12,16,3,16,0.00
2013-3-29,72.3,64.5,55.9,55.0,50.7,45.4,74,62,48,30.25,30.16,18,4,18,0.00
2013-3-30,73.8,66.1,56.6,57.8,53.7,47.5,92,66,41,30.22,30.12,20,2,22,0.00
2013-3-31,79.5,70.5,59.5,66.4,61.6,54.8,90,74,57,30.15,30.00,21,3,23,0.00
2013-4-1,85.5,74.3,68.0,71.1,66.7,61.5,90,78,47,30.01,29.90,19,2,19,0.44
2013-4-2,82.5,72.5,65.7,67.8,65.2,62.3,92,79,52,30.04,29.94,14,3,14,0.00
2013-4-3,81.2,75.1,68.5,70.0,67.7,65.1,90,78,61,30.02,29.94,21,4,21,0.00
2013-4-4,83.5,75.1,68.7,73.1,69.4,65.7,91,83,68,30.00,29.86,23,4,25,0.66
2013-4-5,71.7,68.0,64.5,68.6,64.9,61.6,92,90,82,29.95,29.78,16,3,18,0.10
2013-4-6,74.8,67.6,59.2,65.7,61.0,56.6,91,80,66,30.04,29.88,19,5,20,0.03
2013-4-7,75.7,72.3,69.3,64.8,63.5,62.2,85,74,66,30.10,29.97,18,5,18,0.02
2013-4-8,79.7,71.8,62.3,65.8,61.9,55.2,91,72,45,30.09,30.00,11,0,11,0.02
2013-4-9,78.7,73.5,66.4,68.4,66.0,63.4,91,78,65,30.10,30.00,18,4,19,0.01
2013-4-10,82.2,76.6,71.1,72.1,69.8,66.0,86,80,69,30.06,29.95,21,5,21,0.01
2013-4-11,82.6,78.0,75.3,73.2,71.6,70.3,87,81,71,29.97,29.85,24,8,25,0.02
2013-4-12,86.3,79.0,72.1,76.5,73.7,68.4,90,84,71,29.91,29.82,20,4,20,0.13
2013-4-13,85.1,76.7,72.6,74.6,72.2,69.0,90,86,70,29.93,29.83,12,1,12,0.04
2013-4-14,85.4,78.5,72.8,74.8,72.4,69.9,91,82,66,29.92,29.85,16,4,19,0.01
2013-4-15,87.1,77.5,70.5,76.1,72.2,67.0,90,84,63,30.01,29.88,21,3,21,0.01
2013-4-16,84.0,77.4,71.8,75.7,71.9,68.7,91,84,70,30.08,29.97,22,5,22,0.01
2013-4-17,81.0,77.0,73.0,71.2,69.3,67.6,88,78,66,30.07,29.97,18,4,18,0.01
2013-4-18,84.7,79.1,74.0,73.2,70.9,68.4,87,76,62,30.02,29.93,21,5,21,0.00
2013-4-19,85.5,80.7,77.3,73.9,72.2,69.2,84,76,60,30.00,29.91,24,6,24,0.01
2013-4-20,87.8,77.9,72.1,75.6,72.1,68.5,90,83,56,30.03,29.89,23,3,23,0.00
2013-4-21,83.0,76.3,71.6,73.6,70.8,68.5,90,83,67,30.05,29.94,19,4,19,0.00
2013-4-22,82.8,73.5,68.3,71.5,68.6,65.2,91,85,65,30.00,29.88,18,2,19,0.01
2013-4-23,79.7,73.9,67.6,69.7,65.9,62.5,92,77,63,30.05,29.91,22,6,22,0.01
2013-4-24,80.5,75.2,68.0,66.7,64.3,61.6,87,69,58,30.09,29.99,17,4,17,0.00
2013-4-25,79.6,74.7,69.1,65.1,63.1,61.2,80,68,57,30.16,30.03,21,4,21,0.01
2013-4-26,79.2,73.8,65.9,66.9,64.8,61.9,89,74,62,30.18,30.07,21,5,21,0.00
2013-4-27,79.3,75.5,69.6,68.1,64.8,60.8,81,70,55,30.17,30.03,22,6,22,0.01
2013-4-28,80.5,76.0,72.4,66.8,64.5,61.0,80,68,55,30.08,29.95,19,6,19,0.00
2013-4-29,81.7,76.9,73.7,71.6,68.4,63.2,83,75,67,29.99,29.89,21,4,21,0.00
2013-4-30,82.8,75.6,71.2,72.6,70.0,66.6,90,83,65,29.95,29.88,21,2,22,0.00
2013-5-1,84.0,74.8,70.5,73.4,69.9,67.4,91,85,67,29.96,29.87,16,2,16,0.00
2013-5-2,78.8,71.6,68.9,73.1,68.3,65.8,91,90,82,29.90,29.74,23,4,24,0.01
2013-5-3,83.6,73.4,67.9,71.4,68.1,65.2,91,84,63,29.77,29.64,17,2,18,0.01
2013-5-4,86.1,75.5,68.2,70.1,67.5,65.4,91,77,55,29.77,29.64,17,3,17,0.00
2013-5-5,78.3,72.3,67.1,66.7,62.9,55.0,90,74,45,29.89,29.72,17,4,17,0.01
2013-5-6,84.0,72.0,60.5,65.9,61.2,57.2,89,70,45,29.97,29.87,14,1,14,0.00
2013-5-7,83.7,72.8,63.8,63.7,61.2,58.5,89,69,43,30.02,29.93,20,3,20,0.00
2013-5-8,85.2,74.0,63.2,66.4,61.1,52.7,90,67,36,30.09,30.00,15,2,17,0.00
2013-5-9,85.8,76.8,66.8,73.3,67.5,60.2,86,74,54,30.09,30.01,17,2,17,0.00
2013-5-10,86.6,79.8,72.0,74.0,71.8,68.2,89,77,58,30.09,29.97,20,3,20,0.21
2013-5-11,86.5,78.5,71.8,75.1,72.2,68.2,90,82,65,30.02,29.93,21,3,22,0.15
2013-5-12,88.3,77.8,72.0,75.1,71.2,68.4,90,81,57,30.02,29.90,19,2,19,0.24
2013-5-13,84.5,77.1,71.1,72.5,69.5,65.9,91,78,59,30.04,29.94,15,3,16,0.01
2013-5-14,78.6,74.7,70.1,67.5,62.4,57.2,86,67,51,30.13,30.02,21,5,21,0.00
2013-5-15,79.3,74.0,66.9,66.2,62.3,58.1,86,68,50,30.15,30.05,18,4,19,0.00
2013-5-16,80.7,74.9,66.1,65.6,62.8,58.5,88,67,52,30.07,29.99,16,3,17,0.00
2013-5-17,85.2,77.1,69.5,72.8,69.3,64.7,89,78,55,30.05,29.97,17,2,17,0.01
2013-5-18,84.4,78.9,73.5,74.5,71.7,69.6,90,79,68,30.06,29.98,18,3,20,0.00
2013-5-19,84.3,78.5,71.8,71.8,69.7,66.5,90,75,56,30.05,29.95,17,3,17,0.00
2013-5-20,77.8,74.8,68.8,73.8,70.8,65.7,91,88,81,30.04,29.92,19,2,20,1.52
2013-5-21,82.0,75.6,70.5,73.3,70.2,67.4,91,84,68,30.01,29.88,18,4,19,0.24
2013-5-22,84.9,75.7,70.8,75.1,71.3,67.4,90,86,69,29.92,29.84,16,1,17,0.11
2013-5-23,90.0,80.3,73.0,75.8,72.0,67.3,91,77,49,29.96,29.86,14,2,15,0.10
2013-5-24,89.8,80.8,73.5,75.3,72.8,67.9,90,78,52,30.01,29.90,14,2,17,0.05
2013-5-25,82.3,79.1,75.4,74.2,69.2,64.8,89,73,57,30.11,29.99,22,7,22,0.02
2013-5-26,82.3,77.2,71.2,68.5,65.9,62.2,82,68,59,30.13,30.06,22,6,22,0.01
2013-5-27,82.3,77.8,73.0,72.8,70.1,64.8,90,78,68,30.11,30.01,23,7,23,0.00
2013-5-28,80.9,77.4,74.3,73.9,72.2,70.0,89,84,76,30.06,29.99,24,7,24,0.04
2013-5-29,80.5,75.1,70.7,73.7,70.6,67.3,91,86,77,30.05,29.98,26,6,26,0.07
2013-5-30,81.4,77.0,71.0,74.8,71.9,67.9,90,85,75,30.02,29.95,27,8,30,0.04
2013-5-31,82.0,78.0,74.3,75.4,73.1,70.8,90,85,77,30.01,29.95,21,6,21,0.03
2013-6-1,82.5,76.2,73.3,76.8,72.7,70.5,91,89,78,29.98,29.91,19,3,20,0.02
2013-6-2,88.3,78.0,71.7,77.0,72.8,68.9,91,85,64,29.96,29.87,15,1,17,0.04
2013-6-3,86.8,78.9,73.1,76.4,73.1,70.0,91,83,64,29.99,29.86,13,1,14,0.32
2013-6-4,84.9,78.2,73.3,76.1,73.1,70.2,91,85,65,30.00,29.91,13,1,13,0.09
2013-6-5,83.0,80.4,78.2,76.5,75.4,74.2,88,85,78,29.98,29.85,15,4,15,0.01
2013-6-6,88.1,79.8,75.4,78.7,74.8,71.2,90,85,70,29.86,29.73,23,5,26,0.86
2013-6-7,88.7,76.6,73.2,77.2,72.5,70.2,91,87,67,29.96,29.80,23,2,23,3.45
2013-6-8,86.5,79.3,74.0,78.3,74.4,71.2,91,85,72,30.06,29.92,18,2,18,0.01
2013-6-9,85.5,81.8,79.0,76.4,74.7,72.5,87,79,68,30.07,30.00,19,6,21,0.00
2013-6-10,86.1,82.4,79.4,76.5,75.6,74.3,86,80,71,30.05,29.97,9,5,17,0.00
2013-6-11,88.0,81.9,78.5,77.2,76.1,74.1,89,83,64,30.04,29.96,6,2,15,0.07
2013-6-12,86.2,78.2,76.0,76.8,74.1,72.8,90,87,72,30.03,29.97,5,0,15,0.26
2013-6-13,87.5,79.2,74.6,76.7,73.2,70.1,91,82,59,30.01,29.89,13,1,13,0.07
2013-6-14,91.0,80.1,73.6,77.1,72.9,70.5,91,80,55,29.93,29.83,18,2,18,0.01
2013-6-15,89.3,81.3,75.0,76.7,74.1,71.8,90,79,60,30.01,29.89,12,1,12,0.00
2013-6-16,88.8,82.3,75.7,77.3,75.0,72.5,90,79,61,30.05,29.97,16,3,17,0.01
2013-6-17,89.0,83.6,77.4,76.9,75.3,73.1,89,77,62,30.04,29.96,16,3,16,0.00
2013-6-18,89.5,83.7,77.8,76.4,75.3,73.6,89,76,62,30.02,29.93,18,3,18,0.00
2013-6-19,81.8,79.9,78.5,76.3,75.5,74.9,89,86,82,30.00,29.95,6,0,6,0.00
2013-6-20,90.1,79.3,73.1,76.5,72.4,69.7,90,80,59,30.05,29.98,10,1,19,0.12
2013-6-21,89.0,82.1,74.5,76.5,73.4,69.6,90,76,55,30.07,29.98,15,3,16,0.50
2013-6-22,82.3,78.7,77.7,75.5,74.0,72.4,88,85,76,30.05,29.99,14,0,14,0.00
2013-6-23,87.8,82.2,77.6,75.9,73.7,71.0,86,76,62,30.09,30.00,25,4,31,0.15
2013-6-24,86.4,82.5,77.5,75.9,74.1,71.7,87,76,63,30.12,30.03,18,5,21,0.08
2013-6-25,87.4,81.6,75.0,77.5,74.8,70.9,90,80,69,30.10,29.99,18,4,19,0.03
2013-6-26,88.3,83.0,76.6,77.2,74.9,72.3,89,77,61,30.03,29.96,17,4,17,0.03
2013-6-27,87.3,81.7,74.4,77.1,74.9,69.8,89,80,66,30.02,29.91,18,2,18,0.02
2013-6-28,89.0,80.9,72.4,77.8,74.2,68.3,90,81,63,29.95,29.81,26,2,26,0.96
2013-6-29,92.0,79.7,72.9,77.2,73.8,69.6,91,83,54,29.87,29.78,18,1,18,0.45
2013-6-30,88.5,79.8,75.7,77.7,74.1,71.4,90,83,64,29.91,29.80,22,2,25,0.24
2013-7-1,88.5,80.9,76.8,77.9,74.8,71.6,89,82,67,29.99,29.88,23,3,25,0.06
2013-7-2,87.5,81.7,77.2,77.8,75.7,73.0,89,82,71,30.07,29.93,19,4,19,0.01
2013-7-3,87.2,81.6,76.0,77.2,74.9,71.4,89,81,69,30.09,30.00,29,5,31,0.00
2013-7-4,87.2,81.5,73.8,76.4,74.5,70.4,90,80,68,30.12,30.02,23,5,27,0.00
2013-7-5,85.8,80.6,74.8,77.2,74.8,71.7,90,83,73,30.09,30.00,25,5,25,0.00
2013-7-6,86.3,82.3,79.0,76.7,74.7,71.8,86,78,66,30.08,29.98,23,6,23,0.00
2013-7-7,86.4,82.4,78.0,76.1,74.6,73.0,87,78,69,30.06,29.98,23,5,23,0.00
2013-7-8,86.9,82.3,77.8,75.0,73.8,72.0,84,76,64,30.10,30.03,18,3,18,0.00
2013-7-9,85.2,80.5,75.9,74.2,72.8,69.3,90,78,62,30.09,30.00,19,3,19,0.00
2013-7-10,84.4,77.7,72.4,75.3,72.8,69.3,91,85,72,30.04,29.95,16,2,16,0.00
2013-7-11,89.3,81.0,75.4,77.6,74.0,71.3,91,80,62,30.00,29.89,19,2,19,0.00
2013-7-12,88.4,79.9,74.3,76.9,73.8,70.6,90,82,61,29.93,29.85,17,1,18,0.00
2013-7-13,86.5,75.8,72.1,76.0,71.4,68.8,91,87,67,29.98,29.87,22,1,22,0.00
2013-7-14,87.5,77.6,71.4,75.6,71.9,68.4,91,83,62,30.05,29.94,19,2,19,1.10
2013-7-15,86.5,79.2,72.3,75.6,72.5,69.1,91,81,62,30.05,29.96,20,3,21,0.04
2013-7-16,82.5,77.8,73.2,74.3,71.7,69.3,90,82,71,30.10,30.00,25,5,26,0.04
2013-7-17,78.8,75.2,71.9,74.8,71.6,68.8,91,89,81,30.11,30.00,23,2,23,0.90
2013-7-18,83.3,76.6,70.9,76.9,72.5,67.7,91,87,75,30.08,30.01,23,2,23,1.11
2013-7-19,86.4,79.6,73.3,77.7,74.5,70.5,91,85,71,30.08,30.00,8,3,21,0.01
2013-7-20,86.9,80.1,75.1,78.3,74.7,71.6,90,84,71,30.07,29.99,16,2,17,0.28
2013-7-21,88.9,80.5,75.5,78.8,75.3,69.2,90,84,70,30.11,30.00,14,1,14,0.05
2013-7-22,89.6,82.9,77.3,76.9,74.9,72.6,90,78,60,30.10,30.02,17,2,17,0.00
2013-7-23,93.2,83.7,76.4,77.1,74.2,70.7,90,75,49,30.07,29.92,16,2,16,0.00
2013-7-24,91.8,83.4,76.0,77.0,73.9,71.1,90,74,53,29.98,29.86,16,3,16,0.09
2013-7-25,91.3,83.8,76.0,77.4,74.7,72.2,89,75,59,29.98,29.87,17,3,17,0.00
2013-7-26,91.7,82.2,76.0,76.9,75.1,72.5,89,80,60,29.99,29.89,12,3,25,0.56
2013-7-27,86.8,79.2,74.7,77.7,74.7,71.2,90,86,72,29.96,29.89,19,1,19,0.20
2013-7-28,85.8,80.0,75.1,78.1,74.9,71.4,90,85,74,30.03,29.91,19,1,19,0.22
2013-7-29,88.5,81.8,75.9,78.2,75.5,72.4,90,82,66,30.09,29.98,17,3,17,0.01
2013-7-30,88.1,83.1,74.9,79.2,76.1,71.4,90,80,68,30.12,30.03,17,4,18,0.32
2013-7-31,88.1,83.6,78.5,77.7,75.5,72.1,89,77,62,30.07,29.96,19,4,19,0.00
2013-8-1,87.2,82.9,78.8,75.9,74.5,71.7,87,76,64,30.01,29.89,15,5,18,0.00
2013-8-2,89.4,81.0,75.7,75.7,73.6,69.8,89,79,62,30.01,29.87,16,2,16,0.05
2013-8-3,87.4,79.7,76.4,78.1,74.7,71.4,89,85,71,30.07,29.98,33,1,33,0.02
2013-8-4,92.8,82.6,75.8,77.6,74.2,72.7,90,77,55,30.06,29.94,5,1,13,0.00
2013-8-5,90.0,81.6,76.9,78.3,74.7,72.6,89,80,63,30.00,29.90,21,3,23,0.01
2013-8-6,90.3,81.4,76.6,78.2,75.1,72.3,90,82,65,29.95,29.83,15,1,15,0.00
2013-8-7,88.4,82.5,76.3,78.2,75.3,72.8,90,79,65,29.94,29.86,19,3,19,0.00
2013-8-8,88.9,84.1,78.6,77.1,75.4,72.7,88,76,60,29.97,29.88,22,5,22,0.04
2013-8-9,86.0,82.1,77.9,76.9,74.3,71.0,86,77,68,30.03,29.91,22,4,22,0.04
2013-8-10,89.3,83.9,79.4,77.7,75.6,72.8,85,77,59,30.07,29.99,20,5,20,0.00
2013-8-11,88.7,84.3,80.6,77.5,76.1,74.5,85,77,67,30.09,30.01,17,4,17,0.00
2013-8-12,87.4,82.6,77.2,77.0,75.1,71.9,89,78,62,30.07,29.97,20,4,20,0.00
2013-8-13,89.8,84.0,78.2,77.5,75.2,71.9,89,76,58,30.00,29.91,16,3,16,0.00
2013-8-14,90.2,83.6,77.3,76.8,74.8,72.7,90,76,59,29.98,29.88,18,3,18,0.00
2013-8-15,86.2,80.8,75.5,77.5,75.2,72.0,90,83,73,30.02,29.92,13,2,13,0.07
2013-8-16,90.3,84.0,78.6,78.6,76.8,74.8,89,80,64,30.01,29.93,17,3,17,0.00
2013-8-17,89.7,84.9,81.2,79.0,77.3,75.6,86,78,67,30.03,29.95,21,4,21,0.00
2013-8-18,88.5,84.3,81.2,78.7,76.7,74.7,84,78,69,30.03,29.94,23,5,23,0.00
2013-8-19,89.4,84.1,79.4,78.2,76.4,73.2,87,78,63,30.03,29.92,23,5,23,0.03
2013-8-20,89.4,84.2,80.0,77.6,75.7,72.0,85,76,60,30.01,29.94,20,5,20,0.00
2013-8-21,87.4,82.2,77.6,79.3,76.6,72.6,89,83,71,30.03,29.95,24,4,24,0.33
2013-8-22,88.6,82.6,73.0,78.9,76.1,69.6,90,81,69,30.05,29.91,31,4,31,0.67
2013-8-23,89.2,82.9,78.1,78.2,76.0,74.3,89,80,64,29.97,29.89,19,3,19,0.00
2013-8-24,89.3,82.7,75.8,77.9,75.1,71.1,90,79,63,30.07,29.92,15,2,16,0.27
2013-8-25,85.2,79.6,75.8,76.4,74.3,72.1,90,84,69,30.11,29.98,13,2,14,0.06
2013-8-26,87.3,80.2,74.4,76.8,73.9,70.6,90,82,66,30.08,29.97,16,2,17,0.04
2013-8-27,84.4,78.4,74.1,75.2,72.5,69.8,90,82,64,30.01,29.92,13,1,13,0.04
2013-8-28,86.8,78.9,72.4,76.3,73.3,68.3,90,83,66,30.00,29.90,18,2,18,0.43
2013-8-29,88.8,81.4,74.4,76.6,74.3,70.9,90,80,63,29.98,29.88,15,2,15,0.00
2013-8-30,91.2,83.0,75.8,75.9,74.1,70.3,90,75,54,29.97,29.85,15,2,15,0.00
2013-8-31,87.8,79.4,74.0,78.1,73.6,70.8,90,83,64,29.94,29.87,16,1,16,0.50
2013-9-1,87.5,79.0,74.0,77.5,74.2,70.9,91,86,67,29.96,29.89,12,0,12,0.02
2013-9-2,90.1,78.6,73.9,78.8,73.7,70.0,91,85,59,29.99,29.90,21,1,21,0.41
2013-9-3,87.7,80.2,73.5,77.7,74.3,70.4,91,83,64,29.98,29.89,13,1,15,0.00
2013-9-4,84.9,80.8,77.2,78.2,76.1,73.0,90,86,79,30.02,29.90,18,1,18,0.83
2013-9-5,88.5,82.9,78.3,78.4,76.3,74.5,89,81,67,30.02,29.95,14,2,15,0.00
2013-9-6,90.1,83.6,78.0,78.3,75.9,73.8,89,78,61,29.99,29.87,15,3,15,0.00
2013-9-7,84.3,77.7,73.2,77.6,73.3,67.7,90,87,74,29.94,29.86,17,1,17,0.52
2013-9-8,87.7,78.2,73.3,76.0,73.1,70.2,90,84,65,29.91,29.81,18,1,18,0.00
2013-9-9,87.3,80.9,74.2,76.8,73.7,70.8,90,79,64,29.96,29.85,23,3,24,0.20
2013-9-10,86.5,81.3,75.9,76.9,74.6,72.5,90,81,67,30.00,29.91,21,4,21,0.11
2013-9-11,81.5,78.6,73.6,75.7,73.8,69.8,89,85,78,30.01,29.92,21,2,21,0.47
2013-9-12,83.7,79.6,75.9,76.8,74.7,72.1,90,85,76,29.97,29.84,11,1,11,0.05
2013-9-13,90.8,81.7,74.6,77.6,74.0,71.2,90,78,57,29.86,29.76,14,1,14,0.01
2013-9-14,89.5,82.8,76.1,76.7,74.1,70.8,89,76,55,29.93,29.78,16,2,16,0.00
2013-9-15,86.4,80.1,76.9,78.2,75.2,71.7,88,85,76,30.01,29.87,21,2,22,0.41
2013-9-16,84.0,79.8,74.0,77.9,75.1,70.2,90,86,80,30.00,29.91,23,3,25,0.22
2013-9-17,80.7,78.7,75.1,75.5,74.1,71.6,90,86,81,29.99,29.87,14,4,14,0.04
2013-9-18,85.2,79.2,74.5,76.9,73.9,70.8,89,84,72,29.97,29.87,14,2,14,0.04
2013-9-19,86.1,79.1,74.4,76.9,73.6,70.9,90,84,71,29.96,29.88,19,4,19,0.08
2013-9-20,84.5,78.9,73.1,73.1,71.3,68.1,89,78,61,29.95,29.85,17,3,17,0.11
2013-9-21,86.5,79.6,73.3,74.6,72.7,69.9,89,80,67,29.88,29.73,13,2,13,0.08
2013-9-22,91.1,82.8,75.7,77.2,74.3,70.8,89,77,53,29.83,29.71,15,2,15,0.04
2013-9-23,86.5,79.9,76.1,78.2,75.2,72.3,89,86,72,29.94,29.81,12,1,12,0.32
2013-9-24,92.0,80.9,74.1,80.0,74.3,70.7,91,81,59,29.93,29.82,23,2,24,0.42
2013-9-25,88.5,79.6,73.9,79.0,73.8,69.8,89,83,63,29.87,29.76,18,2,18,0.02
2013-9-26,86.7,79.8,75.7,79.5,75.3,72.2,90,86,76,29.83,29.75,23,3,23,0.03
2013-9-27,87.0,79.8,74.5,75.1,73.0,70.0,90,80,58,29.88,29.77,15,2,16,0.02
2013-9-28,85.1,78.8,74.2,74.9,72.4,70.5,89,81,66,29.92,29.83,20,4,20,0.01
2013-9-29,85.3,79.0,72.8,73.3,71.0,68.3,90,77,60,29.92,29.83,16,2,18,0.01
2013-9-30,86.6,79.9,72.6,73.8,71.4,69.2,89,76,61,29.96,29.86,14,2,14,0.01
2013-10-1,85.8,81.3,74.8,74.8,72.5,70.6,87,75,63,29.98,29.91,19,4,19,0.01
2013-10-2,84.0,81.2,79.1,74.6,73.2,71.1,82,77,67,30.00,29.92,18,5,20,0.00
2013-10-3,85.5,80.8,77.7,75.7,73.6,71.4,86,79,70,30.01,29.90,16,3,16,0.00
2013-10-4,85.4,79.8,74.3,74.5,71.9,70.3,89,78,62,30.01,29.93,16,3,16,0.00
2013-10-5,86.2,79.3,72.4,73.4,71.0,66.8,89,77,56,29.99,29.88,15,2,15,0.00
2013-10-6,89.0,80.9,73.6,75.7,71.7,68.1,89,75,52,29.92,29.82,16,1,16,0.00
2013-10-7,90.3,78.5,73.8,74.8,71.7,69.1,89,81,55,29.86,29.76,26,2,27,0.00
2013-10-8,89.6,80.6,75.3,75.9,73.3,70.8,90,79,61,29.89,29.80,14,2,14,0.00
2013-10-9,83.3,77.4,72.6,75.6,72.1,68.4,88,84,76,29.94,29.85,17,3,17,0.00
2013-10-10,84.5,78.2,71.8,73.9,71.1,68.5,90,79,65,29.97,29.89,19,4,19,0.00
2013-10-11,84.2,77.1,70.0,71.4,68.4,66.6,89,75,58,29.97,29.89,15,3,16,0.00
2013-10-12,84.2,76.5,68.9,70.8,68.4,65.5,90,77,58,29.99,29.90,12,2,13,0.00
2013-10-13,82.8,77.0,72.0,71.3,67.7,64.0,89,74,54,30.01,29.91,17,3,17,0.00
2013-10-14,83.9,76.9,70.9,70.3,68.8,66.8,89,77,60,29.98,29.86,16,2,16,0.00
2013-10-15,84.1,77.1,71.1,72.2,69.9,67.7,89,79,60,29.91,29.82,15,3,15,0.00
2013-10-16,83.5,75.5,71.5,71.9,69.0,66.2,89,81,58,29.91,29.84,14,2,14,0.00
2013-10-17,84.7,77.8,71.1,72.7,70.4,67.7,90,79,64,29.92,29.84,6,2,13,0.00
2013-10-18,86.7,78.9,71.6,74.2,71.4,68.2,90,78,63,29.94,29.85,7,2,16,0.00
2013-10-19,88.2,81.1,73.2,74.4,72.5,69.4,88,76,61,29.92,29.83,6,2,16,0.00
2013-10-20,88.3,80.8,75.8,76.8,74.0,70.8,89,80,57,29.92,29.83,6,2,14,0.00
2013-10-21,87.7,81.3,75.9,76.9,74.7,71.9,89,81,65,29.96,29.86,10,2,16,0.00
2013-10-22,90.8,82.1,74.4,77.3,74.4,70.9,89,78,59,29.92,29.78,17,2,17,0.00
2013-10-23,85.9,79.7,75.5,74.7,72.6,68.8,88,79,67,29.91,29.77,15,3,15,0.00
2013-10-24,79.3,75.6,71.5,69.6,66.0,62.6,83,72,62,30.05,29.89,16,4,16,0.00
2013-10-25,80.5,74.7,68.1,66.8,64.9,63.1,85,72,58,30.10,30.02,21,5,21,0.00
2013-10-26,80.5,73.2,66.9,67.1,64.4,62.6,87,75,57,30.10,30.00,17,2,17,0.00
2013-10-27,81.0,73.0,65.9,66.2,63.8,60.9,86,74,55,30.05,29.97,19,2,19,0.00
2013-10-28,82.0,74.0,66.1,67.8,64.8,60.0,89,74,51,30.10,30.00,17,2,17,0.00
2013-10-29,82.5,75.4,67.3,70.0,67.0,63.6,89,76,60,30.13,30.04,22,4,22,0.00
2013-10-30,81.8,77.7,71.4,69.2,67.3,64.6,85,71,60,30.14,30.03,20,6,20,0.00
2013-10-31,84.6,79.4,74.8,72.4,70.5,67.0,83,75,60,30.07,29.95,20,4,20,0.00
2013-11-1,86.6,80.3,74.8,74.6,72.3,69.8,85,77,62,29.97,29.84,19,2,19,0.00
2013-11-2,88.7,78.0,70.8,72.9,69.6,63.5,90,77,50,29.90,29.76,16,3,16,0.00
2013-11-3,79.4,72.8,68.0,66.3,63.2,60.8,85,72,60,29.98,29.85,24,7,26,0.00
2013-11-4,75.8,75.6,75.3,63.5,63.1,62.7,66,65,65,29.97,29.96,19,7,19,0.00
2013-11-5,81.1,77.9,75.6,71.3,69.4,65.4,84,76,64,30.04,29.97,25,11,27,0.05
2013-11-6,82.3,77.6,71.0,70.8,69.0,66.5,86,75,64,30.02,29.94,23,6,23,0.00
2013-11-7,84.3,75.8,69.8,71.6,68.7,65.9,89,79,57,29.97,29.87,13,2,13,0.00
2013-11-8,82.2,75.6,70.4,72.3,69.3,66.3,88,81,63,29.99,29.89,23,6,23,0.26
2013-11-9,78.3,75.2,72.7,72.1,70.4,69.3,89,85,79,30.07,29.97,25,9,25,0.89
2013-11-10,80.9,77.6,74.5,72.2,70.5,68.3,87,79,73,30.07,29.99,19,6,19,0.02
2013-11-11,81.4,75.7,69.9,71.8,68.4,66.0,88,78,70,30.07,30.00,18,4,19,0.00
2013-11-12,81.8,76.0,69.3,70.5,67.8,65.6,89,76,64,30.03,29.92,16,3,16,0.00
2013-11-13,74.7,71.3,68.5,67.5,63.9,57.3,85,77,65,30.16,29.94,28,9,28,0.15
2013-11-14,74.8,71.9,69.2,62.8,58.9,55.7,71,64,56,30.19,30.09,26,9,26,0.00
2013-11-15,80.2,76.4,72.8,69.3,66.8,62.7,77,72,66,30.10,29.98,21,6,21,0.00
2013-11-16,79.5,77.2,72.5,71.6,69.5,66.8,86,77,71,30.05,29.97,19,4,19,0.09
2013-11-17,83.0,78.2,71.9,73.0,70.5,67.7,87,77,67,30.03,29.96,21,3,21,0.00
2013-11-18,82.7,76.0,70.8,73.1,70.0,67.1,89,82,69,29.98,29.87,9,0,9,0.00
2013-11-19,82.5,75.2,71.5,72.7,69.9,67.8,89,84,68,29.90,29.81,18,2,18,0.00
2013-11-20,82.5,75.4,69.9,74.9,70.4,66.7,90,85,71,30.01,29.87,12,1,12,0.45
2013-11-21,80.0,75.6,72.0,73.0,70.7,68.6,89,85,75,30.09,29.99,18,3,20,0.54
2013-11-22,79.5,77.0,75.3,71.6,70.1,68.6,84,79,74,30.11,30.02,23,8,24,0.00
2013-11-23,80.8,76.4,72.0,71.7,69.8,67.2,86,80,72,30.03,29.92,17,4,17,0.00
2013-11-24,80.2,72.9,68.5,69.9,66.6,64.0,89,81,65,30.10,29.94,25,6,25,0.13
2013-11-25,74.5,72.6,70.8,68.0,64.7,60.6,86,77,68,30.16,30.00,26,10,27,0.06
2013-11-26,82.3,77.0,71.8,74.1,71.5,67.6,88,83,75,30.01,29.79,22,6,22,0.14
2013-11-27,77.3,71.0,58.2,72.9,64.0,51.9,89,79,59,30.08,29.74,27,5,27,0.71
2013-11-28,72.0,61.4,47.7,59.6,53.2,44.0,88,75,57,30.20,30.07,21,5,21,0.00
2013-11-29,75.2,68.3,58.9,62.7,59.4,55.0,89,74,59,30.22,30.14,23,6,24,0.00
2013-11-30,74.5,68.1,61.1,67.5,62.2,57.2,88,82,69,30.17,30.06,19,4,20,0.36
2013-12-1,74.0,67.6,62.6,68.8,62.5,58.7,87,84,74,30.06,29.90,12,1,12,0.61
2013-12-2,72.7,67.1,61.8,62.2,56.3,48.3,74,68,61,29.90,29.78,14,2,14,0.01
2013-12-3,78.7,69.4,60.6,64.4,55.0,45.8,68,60,52,29.96,29.85,11,1,12,0.00
2013-12-4,81.0,72.5,64.9,67.7,55.4,42.6,66,55,41,30.05,29.94,15,1,15,0.00
2013-12-5,81.8,73.6,64.9,67.4,51.6,34.3,62,47,27,30.12,30.03,19,3,19,0.00
2013-12-6,81.8,76.4,68.7,67.9,55.0,31.4,63,49,26,30.14,30.04,20,4,20,0.00
2013-12-7,82.0,73.4,66.3,67.1,29.4,-33.4,61,26,1,30.17,30.09,13,2,13,0.04
2013-12-8,81.5,76.0,69.5,65.7,33.4,-33.3,59,27,2,30.17,30.08,20,4,20,0.06
2013-12-9,82.1,77.1,70.7,66.7,43.6,-33.7,61,36,2,30.16,30.06,21,4,21,0.00
2013-12-10,83.0,76.6,70.2,65.6,22.4,-32.8,56,18,1,30.12,30.03,13,2,14,0.00
2013-12-11,81.5,74.5,69.4,58.2,12.7,-30.6,46,9,1,30.16,30.07,14,2,14,0.00
2013-12-12,77.5,70.3,64.3,50.7,12.7,-37.6,49,12,1,30.18,30.09,20,4,20,0.00
2013-12-13,76.3,72.8,64.6,60.2,47.5,-36.8,58,43,1,30.15,30.05,20,7,23,0.08
2013-12-14,81.2,76.7,71.4,63.3,28.5,-32.5,56,22,1,30.07,29.94,21,5,22,0.00
2013-12-15,83.0,75.6,69.6,49.1,5.4,-30.2,32,3,1,30.02,29.89,20,2,20,0.00
2013-12-16,73.1,67.4,60.8,55.9,17.1,-38.6,55,18,1,30.12,29.99,14,4,15,0.00
2013-12-17,75.5,66.3,58.1,58.9,24.6,-38.4,57,24,2,30.14,30.05,17,4,17,0.00
2013-12-18,74.2,65.4,59.2,58.0,23.9,-39.4,58,24,1,30.19,30.10,18,4,18,0.00
2013-12-19,76.2,67.7,56.4,59.4,32.2,-22.2,56,30,9,30.19,30.10,18,3,19,0.00
2013-12-20,80.1,74.9,66.1,61.0,26.9,-20.3,53,20,2,30.14,30.06,14,4,19,0.00
2013-12-21,82.3,77.7,75.4,61.0,16.9,-31.5,50,13,1,30.10,30.01,22,6,22,0.00
2013-12-22,82.6,78.4,76.1,64.8,21.4,-31.1,55,18,1,30.11,30.03,18,6,21,0.00
2013-12-23,82.8,77.4,70.2,64.7,23.5,-31.8,55,18,2,30.13,30.06,20,4,20,0.00
2013-12-24,81.3,70.4,65.9,58.0,8.5,-36.3,46,7,2,30.14,30.03,20,4,20,0.00
2013-12-25,75.5,72.5,69.9,54.7,29.7,-34.5,49,24,2,30.12,30.05,22,8,22,0.03
2013-12-26,77.2,74.5,71.0,49.3,14.1,-33.4,38,12,1,30.12,30.02,15,5,15,0.05
2013-12-27,79.5,73.8,66.3,45.7,8.1,-31.8,31,7,1,30.15,30.04,17,5,17,0.01
2013-12-28,79.3,76.5,74.4,47.7,18.1,-32.2,33,12,1,30.13,29.97,22,6,22,0.00
2013-12-29,81.5,77.1,73.0,55.4,11.7,-30.4,41,8,1,29.99,29.88,19,4,20,0.00
2013-12-30,76.9,71.7,66.3,25.8,0.1,-31.3,15,1,1,30.10,29.93,13,3,13,0.00
2013-12-31,78.0,72.2,67.1,60.0,32.0,-33.1,57,29,6,30.18,30.06,22,7,22,0.00
2014-1-1,79.5,74.1,71.9,51.7,8.3,-32.6,45,7,1,30.15,29.99,18,4,18,0.47
2014-1-2,85.1,74.9,66.4,67.7,25.2,-31.9,57,21,4,29.99,29.82,20,4,20,0.01